Location: Stigler
(35.2540°N, 95.1230°W)
Time: 06:52:00
(UTC-05:00)

ATLAS 3B CENTAUR R/B - Pass Details

Date: 26 September 2017
Orbit: 224 x 5816 km, 28.1° (Epoch: 23 October)

Event Time Altitude Azimuth Distance (km) Brightness Sun altitude
Rises 19:33:44 0° 238° (WSW) 3,524 6.5 -5.5°
Reaches altitude 10° 19:35:36 10° 233° (SW) 2,953 5.9 -5.8°
Maximum altitude 19:43:03 53° 157° (SSE) 2,320 4.3 -7.4°
Enters shadow 20:02:06 12° 89° (E) 7,171 6.3 -11.2°
